Tacoma Narrows, WA
on Wednesday, November 28, 2012

Wednesday
Previous Day Next Day
Daily Summary
 ActualAverageRecord
Temperature
Mean Temperature °F °F  
Max Temperature 44°F 46°F 53°F (1997)
Min Temperature 37°F 38°F 21°F (2006)
Degree Days
Heating Degree Days 24    
Moisture
Dew Point 39°F   
Average Humidity 92    
Maximum Humidity 100    
Minimum Humidity 87    
Precipitation
Precipitation 0.11 in in in ()
Wind
Wind Speed 1 mph   
Max Wind Speed 7 mph   
Max Gust Speed mph   
Visibility 6 miles   
Events Fog , Rain   
Averages and records for this station are not official NWS values.
Key: T is trace of precipitation, MM is missing value
Source: NWS Daily Summary
Seasonal Weather Averages
Time(PST)TemperatureDew PointHumidity Pressure Visibility Wind DirectionWind SpeedGust SpeedPrecipitationEvents Conditions
12:53 AM 39.0°F 36.0°F 89% 29.89 in 10.0 miles Calm Calm - N/A   Clear
1:53 AM 37.9°F 36.0°F 93% 29.88 in 10.0 miles Calm Calm - N/A   Clear
2:27 AM 41.0°F 37.4°F 87% 29.85 in 10.0 miles Calm Calm - N/A   Scattered Clouds
2:53 AM 39.9°F 37.9°F 93% 29.86 in 10.0 miles Calm Calm - N/A   Partly Cloudy
3:39 AM 39.2°F 37.4°F 93% 29.82 in 3.0 miles Calm Calm - N/A   Mostly Cloudy
3:46 AM 39.2°F 37.4°F 93% 29.82 in 2.0 miles Calm Calm - N/A   Mostly Cloudy
3:53 AM 37.9°F 36.0°F 93% 29.83 in 1.2 miles Calm Calm - N/A   Overcast
4:02 AM 37.4°F 35.6°F 93% 29.81 in 0.5 miles Calm Calm - N/A Fog Fog
4:15 AM 39.2°F 37.4°F 93% 29.81 in 1.5 miles Calm Calm - N/A   Overcast
4:26 AM 39.2°F 37.4°F 93% 29.80 in 2.0 miles North 3.5 mph - N/A   Scattered Clouds
4:41 AM 37.4°F 37.4°F 100% 29.79 in 1.0 miles Calm Calm - N/A   Mist
4:48 AM 39.2°F 37.4°F 93% 29.79 in 2.0 miles Calm Calm - N/A   Scattered Clouds
4:53 AM 39.0°F 37.0°F 93% 29.80 in 6.0 miles Calm Calm - N/A   Scattered Clouds
5:53 AM 39.0°F 37.0°F 93% 29.78 in 9.0 miles North 3.5 mph - N/A   Mostly Cloudy
6:53 AM 39.0°F 37.0°F 93% 29.77 in 9.0 miles Calm Calm - N/A   Scattered Clouds
7:53 AM 39.0°F 37.0°F 93% 29.73 in 8.0 miles North 3.5 mph - N/A   Overcast
8:53 AM 41.0°F 37.9°F 89% 29.72 in 8.0 miles NNW 6.9 mph - N/A   Overcast
9:53 AM 42.1°F 39.0°F 89% 29.71 in 10.0 miles Calm Calm - 0.00 in   Overcast
10:53 AM 42.1°F 39.9°F 92% 29.68 in 10.0 miles Calm Calm - 0.00 in   Overcast
11:53 AM 43.0°F 39.9°F 89% 29.65 in 10.0 miles Calm Calm - 0.00 in Rain Light Rain
12:53 PM 43.0°F 41.0°F 93% 29.65 in 3.0 miles Calm Calm - 0.03 in Rain Light Rain
1:53 PM 43.0°F 42.1°F 97% 29.63 in 5.0 miles Calm Calm - 0.04 in Rain Light Rain
2:53 PM 44.1°F 41.0°F 89% 29.60 in 9.0 miles North 3.5 mph - 0.02 in Rain Light Rain
3:53 PM 44.1°F 42.1°F 93% 29.64 in 5.0 miles West 3.5 mph - 0.02 in Rain Light Rain
4:53 PM 44.1°F 42.1°F 93% 29.64 in 8.0 miles Calm Calm - 0.00 in   Overcast
5:41 PM 44.6°F 42.8°F 93% 29.65 in 7.0 miles SSW 5.8 mph - 0.00 in Rain Light Rain
5:53 PM 44.1°F 42.1°F 93% 29.67 in 8.0 miles SW 5.8 mph - 0.00 in Rain Light Rain
6:26 PM 42.8°F 41.0°F 93% 29.65 in 8.0 miles South 4.6 mph - 0.00 in   Overcast
6:53 PM 43.0°F 41.0°F 93% 29.68 in 7.0 miles South 4.6 mph - 0.00 in   Scattered Clouds
6:56 PM 42.8°F 41.0°F 93% 29.67 in 6.0 miles South 4.6 mph - N/A   Mostly Cloudy
7:53 PM 44.1°F 42.1°F 93% 29.70 in 8.0 miles Calm Calm - 0.00 in   Overcast
8:53 PM 44.1°F 41.0°F 89% 29.72 in 10.0 miles Calm Calm - N/A   Mostly Cloudy
9:42 PM 39.2°F 37.4°F 93% 29.71 in 1.5 miles Calm Calm - N/A   Clear
9:53 PM 41.0°F 39.0°F 93% 29.73 in 4.0 miles Calm Calm - N/A   Clear
10:53 PM 43.0°F 41.0°F 93% 29.73 in 5.0 miles Calm Calm - N/A   Scattered Clouds
11:17 PM 44.6°F 42.8°F 93% 29.71 in 4.0 miles Calm Calm - N/A   Mostly Cloudy
11:53 PM 44.1°F 41.0°F 89% 29.71 in 9.0 miles East 3.5 mph - N/A   Overcast
Moon Phase
Nov. 28 Dec. 06 Dec. 13 Dec. 20 Dec. 28
Sunrise:07:33 AM (PST) Moon Rise:04:42 PM (PST)
Sunset:04:23 PM (PST) Moon Set:07:35 AM (PST)

Copyright © 2014 The Weather Underground, Inc.